Showing default

GGSE 2, 1244

Orbit data source: Space-Track

GGSE 2, 1244 is an American payload satellite in LEO that was launched on Tue, 09 Mar 1965 UTC via a THOR SLV-2 AGENA D launch vehicle from the Air Force Western Test Range (AFWTR). Payload-class satellites include a variety of spacecraft equipped with specific instruments for various scientific and technological missions. These include communications satellites like Starlink; space stations such as the ISS; scientific satellites like the Hubble; Earth observation satellites from companies like Planet Labs, Umbra, and HawkEye 360; GPS; miniature CubeSats for education and research; and military/defense satellites.

Loading next visibility...
Identifier
1244, 1965-016B
Orbit
LEO
Country
Flag of USUS
Related business
Manufacturer
NRL
Mission
Spacecraft
Bus & Motor
NRL 24", Unknown motor
Mass
55 kg wet, 55 kg dry
Launch date (UTC)
1965-03-09 (61 years ago)
Launch vehicle
THOR SLV-2 AGENA D
Launch site
Air Force Western Test Range (AFWTR)
Object type
Payload
Rocket body
Debris
Shape & HBR
Unknown
Radar Cross Section
Medium (>0.1 m² and <1 m²)

Expand to show TLE details & history
Last TLE update: 10 hours ago

TLE from 10 hours ago
0 GGSE 2
1 01244U 65016B   25297.78408017  .00000080  00000-0  96402-4 0  9992
2 01244  70.0797 327.7673 0019296  31.0559 329.1683 13.96106148 85204
Epoch: 2025-10-24T18:49Z
TLE epoch observation values (Epoch: 2025-10-24T18:49:04.526Z)
Latitude
-0.00009°
Longitude
12.07439°
Altitude
897.562 km
Speed
7.41 km/s
True Right ascension
21h 51m 04s
True Declination
0° 00' 00"
Sunlit
Object was in daylight at epoch
Visualization orbit readout
Latitude
Unknown
Longitude
Unknown
Altitude
Unknown
Speed
Unknown
Apparent Right ascension
Unknown
Apparent Declination
Unknown
Sunlit
N/A
Visualization observer readout
Local Sidereal Time
00:31:31
Azimuth
Unknown
Elevation
Unknown
Doppler factor
Unknown
Orbital elements
Apogee altitude
919.399 km
Perigee altitude
891.291 km
Semi-major axis
7,283.482 km
Eccentricity
0.00193
Inclination
70.0797°
RAAN
327.7673°
Arg. of periapsis
31.0559°
True anomaly
329.05474°
Mean anomaly
329.1683°
Eccentric anomaly
329.11154°
Mean motion
3.49168 °/min
Orbital period
103.1 mins
BSTAR
0.000096402
Loading maneuver chart data...
Computing Atmospheric mass density...
Loading historical data...
Loading historical data...
Loading historical data...
Loading historical data...
Loading historical data...
Loading historical data...
Loading historical data...

Documentation

Showing up to 5 results
|